Home   Weather   Bitburg   Past weeks

Flag for Germany Past Weather in Bitburg, Rhineland-Palatinate, Germany — Yesterday and Last 2 Weeks

Now
42 °F

Passing clouds.


Feels Like: 38 °F
Forecast: 31 / 56 °F
Wind: 6 mph from North

Location: Spangdahlem

Current Time: Apr 28, 2017 at 10:46:19 am

Latest Report: Apr 28, 2017 at 9:58 am


Visibility: N/A

Pressure: 29.96 "Hg

Humidity: 66%

Dew Point: 32 °F

Location of BitburgLocation

Past Weather in Bitburg — Graph

°F

Bitburg Temperature Yesterday

Maximum temperature yesterday: 52 °F (at 1:58 pm)
Minimum temperature yesterday: 32 °F (at 6:58 am)
Average temperature yesterday: 42 °F

High & Low Weather Summary for the Past Weeks

 TemperatureHumidityPressure
High60 °F (Apr 24, 4:58 pm)93% (Apr 16, 7:58 am)30.60 "Hg (Apr 16, 7:58 am)
Low28 °F (Apr 20, 4:58 am)28% (Apr 20, 6:58 pm)29.68 "Hg (Apr 25, 4:58 am)
Average44 °F62%30.12 "Hg
* Reported Apr 13 8:03 am — Apr 28 8:58 am, Bitburg, Weather by CustomWeather, © 2017

Note: Actual official high and low records may vary slightly from our data, if they occured in-between our weather recording intervals... More about our weather records

Advertising

Bitburg Weather History for the Previous 24 Hours

Scroll right to see more
 ConditionsComfort  
Time TempWeatherWind HumidityBarometerVisibility
8:58 am
Fri, Apr 28
36 °FSunny.3 mph76%29.96 "HgN/A
7:58 am34 °FSunny.No wind81%29.96 "HgN/A
6:58 am30 °FSunny.No wind85%29.95 "HgN/A
5:58 am31 °FClear.No wind83%29.93 "HgN/A
4:58 am32 °FClear.No wind80%29.94 "HgN/A
3:58 am33 °FClear.No wind79%29.96 "HgN/A
2:58 am34 °FClear.5 mph77%29.96 "HgN/A
1:58 am34 °FClear.No wind75%29.96 "HgN/A
12:58 am36 °FClear.No wind70%29.98 "HgN/A
11:58 pm
Thu, Apr 27
37 °FClear.No wind70%29.98 "HgN/A
10:58 pm39 °FClear.3 mph61%29.98 "HgN/A
9:58 pm40 °FClear.5 mph57%29.98 "HgN/A
9:32 pm41 °FPassing clouds.6 mph53%29.97 "HgN/A
8:58 pm44 °FPassing clouds.5 mph46%29.96 "HgN/A
8:32 pm46 °FScattered clouds.8 mph40%29.95 "HgN/A
7:58 pm47 °FMostly cloudy.No wind36%29.94 "HgN/A
6:58 pm47 °FPassing clouds.6 mph38%29.94 "HgN/A
6:11 pm48 °FBroken clouds.9 mph37%29.94 "HgN/A
5:58 pm49 °FScattered clouds.10 mph39%29.94 "HgN/A
4:58 pm50 °FPassing clouds.8 mph37%29.95 "HgN/A
3:58 pm49 °FPassing clouds.8 mph41%29.96 "HgN/A
3:20 pm50 °FScattered clouds.10 mph40%29.96 "HgN/A
2:39 pm48 °FPartly sunny.6 mph40%29.96 "HgN/A
1:58 pm52 °FScattered clouds.12 mph43%29.96 "HgN/A
12:46 pm48 °FPartly sunny.6 mph46%29.98 "HgN/A
12:32 pm46 °FScattered clouds.5 mph50%29.98 "HgN/A
12:10 pm45 °FSunny.3 mph57%29.99 "HgN/A
11:58 am44 °FScattered clouds.5 mph55%29.99 "HgN/A
11:30 am46 °FPartly sunny.No wind50%29.99 "HgN/A
10:58 am42 °FPassing clouds.No wind61%30.00 "HgN/A
10:40 am43 °FPassing clouds.No wind66%29.99 "HgN/A
Weather by CustomWeather, © 2017

See weather overviewHow to use our weather pages